Wind_Speed
9 7 5 4 5 7 9 12 14 16 15 15 14 14 15 14 15 15 15 16 16 17 19 19 21 20 19 20 19 17 17 17 17 17 18 16 16 16 15 15 15 14 11 10 10 10 11
9 7 6 5 5 7 8 11 14 16 17 15 15 13 14 13 13 13 14 15 16 17 18 18 18 20 20 18 18 18 17 18 17 17 17 18 16 16 16 16 16 16 14 13 12 10 12
8 9 4 3 4 6 8 12 14 16 16 15 15 13 12 14 12 12 12 13 14 16 16 18 18 19 21 22 21 20 20 19 20 19 17 18 19 17 15 14 14 14 15 14 13 12 12
9 9 5 2 2 5 8 11 13 15 16 17 15 14 15 14 12 13 13 13 13 14 15 15 16 19 23 23 22 21 20 21 20 20 21 20 20 19 19 18 15 14 14 15 16 17 17
9 8 5 1 2 5 8 10 13 15 15 15 15 16 15 13 12 14 14 13 12 13 16 15 16 19 23 25 23 22 22 21 20 20 20 21 20 20 21 21 21 18 17 15 16 18 19
10 7 5 2 0 4 7 10 12 15 15 16 15 15 16 14 11 12 15 14 12 13 14 15 16 18 21 22 24 24 24 25 24 24 24 24 22 21 21 22 23 24 21 20 18 18 22
11 7 5 3 3 4 6 10 11 14 16 16 16 16 15 14 11 11 12 14 14 15 17 16 15 16 19 24 26 27 27 27 28 27 24 24 24 21 21 22 23 24 24 23 22 20 21
11 7 6 5 6 6 7 11 13 15 17 17 15 19 17 11 12 12 13 15 16 16 17 16 16 17 19 23 26 27 30 31 30 30 29 27 27 27 25 22 21 24 26 26 24 24 23
11 8 7 7 9 9 10 13 14 16 17 19 17 17 17 12 12 12 13 15 17 15 15 18 19 20 22 24 26 30 32 35 34 32 30 30 27 26 27 28 28 26 26 27 27 24 24
13 11 9 9 12 12 13 14 16 19 20 18 20 16 18 16 15 16 16 18 18 15 15 15 17 20 22 24 26 31 34 35 35 36 34 30 31 29 26 28 29 29 29 29 28 25 27
16 14 12 13 15 14 15 16 18 20 22 21 20 19 20 21 17 17 17 16 17 16 18 20 20 22 24 27 29 30 33 36 37 38 37 33 32 30 31 32 33 32 32 31 28 28 28
18 18 16 16 17 17 18 19 21 22 24 25 25 21 21 19 17 17 17 17 17 17 16 19 21 22 24 26 29 31 32 35 37 39 37 35 32 32 34 35 36 37 35 32 29 30 30
23 21 20 20 19 19 21 22 24 26 26 26 22 21 20 17 17 20 18 17 17 18 19 20 22 24 27 30 31 33 34 35 37 39 39 39 34 35 36 36 36 37 37 36 35 33 34
25 23 22 22 22 23 24 26 28 29 28 27 26 20 17 17 19 22 19 20 19 21 24 25 26 28 31 33 35 36 37 37 39 38 42 42 38 37 37 38 37 37 37 37 38 36 36
27 27 26 26 26 27 28 30 32 27 27 25 23 19 19 22 24 23 22 23 21 22 24 24 27 30 32 35 38 40 40 41 40 41 41 44 41 38 40 39 39 39 38 38 38 38 38
33 31 30 30 29 29 30 30 28 25 23 22 22 24 25 24 23 22 24 24 23 25 26 27 28 31 35 38 39 41 44 46 43 43 44 44 43 38 39 41 41 40 39 39 41 40 37
36 35 35 33 31 31 31 26 26 26 25 25 28 27 26 24 23 25 26 28 28 30 31 33 34 36 37 40 40 39 43 47 46 45 46 45 43 43 42 44 46 41 39 40 39 39 36
39 39 39 38 36 35 34 30 32 29 28 28 34 32 30 28 26 28 29 32 33 33 35 37 38 39 42 43 45 43 43 47 50 50 47 45 46 45 45 47 46 42 42 39 40 39 37
44 44 44 42 36 35 32 34 34 36 29 30 34 33 32 33 32 32 34 35 37 36 37 38 40 41 43 45 47 45 48 46 50 50 49 49 50 50 50 48 49 44 43 39 38 36 37
49 49 47 45 42 40 38 35 32 33 33 33 35 35 38 39 39 36 35 35 38 38 39 41 44 44 46 46 48 46 52 48 49 49 50 52 50 50 48 49 50 46 41 38 37 35 39
56 53 51 49 45 43 40 35 34 35 37 40 38 38 42 40 37 35 36 37 38 40 41 43 43 45 45 46 49 49 51 48 49 49 51 55 53 52 54 53 47 43 42 38 39 38 42
54 52 52 53 49 46 42 38 40 41 42 44 43 41 40 39 37 35 36 38 41 43 44 42 42 43 45 46 49 51 51 51 53 54 57 58 61 60 59 47 42 43 38 37 38 40 41
54 53 51 50 49 48 46 42 43 44 43 44 45 45 42 41 39 37 36 39 41 40 42 42 43 46 49 50 50 49 50 53 55 57 59 58 56 51 41 37 39 39 39 40 40 43 43
53 51 49 50 51 50 49 48 47 46 48 46 47 48 46 45 43 43 41 42 39 40 42 44 47 51 52 51 50 52 52 54 56 57 57 56 40 37 35 34 36 45 38 39 44 49 46
56 53 53 54 52 51 50 49 48 47 48 46 46 47 46 45 45 43 44 44 46 44 45 48 52 55 50 48 51 54 54 54 52 48 40 38 42 46 48 46 47 41 40 43 45 50 46
58 58 58 56 54 54 51 51 51 52 50 47 47 47 49 48 46 44 46 47 46 48 50 51 50 51 49 53 53 54 54 53 54 51 46 47 47 55 52 47 47 46 41 43 50 49 42
63 61 59 58 57 58 55 55 56 51 50 50 49 47 43 39 46 49 50 52 51 52 50 47 49 51 52 58 60 60 59 57 55 54 53 45 47 49 50 51 51 54 44 42 44 42 39
68 68 67 63 61 61 57 52 51 53 54 51 48 44 44 51 53 54 52 53 45 45 42 46 54 56 59 59 60 60 59 57 55 55 52 49 55 53 51 52 55 54 47 39 42 33 37
67 69 68 64 62 63 58 58 58 58 57 57 53 52 54 54 52 53 52 49 49 49 53 57 57 55 56 60 61 62 58 56 54 52 49 51 53 52 52 52 51 45 42 41 38 34 37
Wind_Direction
127 115 100 67 37 34 17 21 20 22 20 16 18 22 26 24 27 28 25 25 25 25 22 21 18 15 17 16 15 14 8 10 9 7 5 9 13 15 13 4 2 2 352 344 331 317 298
138 125 101 71 36 37 22 25 22 22 17 20 19 18 25 21 18 22 19 17 21 19 18 18 15 12 12 8 8 6 4 7 4 357 352 353 356 2 3 2 355 349 348 346 336 323 311
151 134 119 76 27 25 23 29 27 23 23 24 26 23 17 16 16 14 11 5 11 9 8 12 11 8 8 6 5 1 358 3 2 357 351 346 344 344 345 349 348 343 339 337 331 321 313
162 140 141 120 36 22 28 24 19 22 22 23 22 20 11 4 6 7 8 360 357 360 0 4 8 6 7 5 5 2 1 358 359 357 352 347 339 339 338 335 333 332 326 322 322 320 320
167 155 165 162 30 32 18 10 6 10 10 13 12 9 0 359 1 4 359 1 351 346 350 351 359 1 1 5 3 1 355 354 355 354 350 345 345 341 335 332 330 325 320 313 311 310 310
179 168 181 185 14 23 1 355 356 353 357 356 359 356 358 354 352 0 356 357 351 341 340 349 349 351 359 357 358 359 355 353 349 351 351 345 342 342 341 332 328 326 320 312 305 303 303
199 191 197 218 285 343 339 339 343 343 347 351 352 349 353 354 350 349 352 354 353 336 342 347 350 347 353 359 358 358 353 350 347 346 344 341 342 338 338 334 327 324 319 315 310 301 298
213 209 219 242 276 305 323 325 329 336 341 345 348 350 353 352 354 349 347 347 346 338 339 343 344 344 349 353 354 353 352 349 346 343 343 341 339 339 337 330 324 322 320 316 312 305 300
226 232 240 258 276 296 313 316 320 328 335 333 338 341 355 352 355 343 341 342 342 341 338 343 343 344 346 346 345 347 348 349 346 344 341 337 336 335 333 330 327 322 316 315 311 304 302
235 243 253 264 273 290 305 309 317 321 325 328 324 330 341 339 340 349 343 345 347 341 346 345 341 338 339 344 342 344 346 344 343 342 340 335 333 331 330 328 323 319 317 316 311 305 305
240 249 255 263 275 287 295 304 311 314 318 323 313 321 323 331 329 334 346 345 345 341 336 333 332 330 338 340 341 341 341 340 342 340 335 334 329 327 328 325 322 319 316 314 310 306 306
242 251 258 268 278 288 296 302 306 309 310 305 311 303 312 317 324 331 333 337 337 333 330 327 328 328 328 332 334 334 334 335 336 336 332 330 328 324 325 324 321 319 315 312 307 306 306
245 252 261 268 276 286 292 299 301 301 305 302 306 313 307 303 312 323 320 321 326 328 324 319 319 323 325 327 330 330 332 335 333 331 328 327 326 323 323 321 319 317 314 310 307 308 307
249 257 263 270 278 284 291 298 300 297 300 302 296 306 302 300 302 312 312 312 314 318 321 320 321 324 324 324 327 328 330 331 329 329 327 326 325 322 320 319 320 317 312 309 306 307 305
250 255 261 268 275 283 291 292 302 293 291 300 300 301 303 302 301 303 309 310 310 311 315 317 318 320 321 322 323 325 326 327 327 326 326 323 321 320 321 320 319 315 312 308 304 303 303
250 255 261 268 277 284 289 292 292 293 289 298 302 303 302 304 302 300 306 301 305 308 309 313 316 319 318 318 319 322 326 325 324 323 321 319 318 319 318 319 317 312 309 306 305 303 304
252 259 264 270 273 286 278 280 285 290 292 294 298 302 306 304 300 303 303 303 305 306 307 309 309 311 311 312 314 318 319 319 319 318 318 317 316 316 315 318 315 309 306 303 301 301 303
255 260 265 269 275 286 270 272 276 287 286 286 294 300 301 300 299 298 299 302 304 305 306 306 307 309 310 310 309 314 319 317 316 315 316 315 313 313 313 314 310 306 304 301 300 301 305
256 259 263 267 272 277 275 275 275 279 277 283 292 292 298 299 299 298 298 300 300 301 302 303 305 309 311 311 309 315 316 315 314 314 314 312 313 311 310 312 309 306 301 297 296 301 308
258 261 262 266 268 272 276 279 275 270 274 281 288 290 295 295 294 291 291 295 298 301 304 308 310 312 313 311 308 316 311 310 310 310 309 309 311 306 309 308 304 302 297 294 295 302 302
259 259 260 262 265 270 274 275 275 274 279 284 288 290 290 289 291 292 296 299 301 304 306 310 310 309 310 308 308 311 308 308 309 310 310 309 308 305 306 305 298 298 299 293 300 303 301
256 258 260 259 262 264 267 274 276 276 280 284 285 285 288 288 290 293 296 299 301 304 306 305 307 312 310 308 307 304 304 306 308 307 307 308 307 305 305 299 295 297 295 297 301 304 306
255 258 257 254 258 263 269 272 276 280 284 286 288 288 288 285 288 291 294 297 301 302 301 302 304 305 301 299 300 301 302 306 307 308 308 309 306 300 302 299 297 304 295 301 302 304 306
252 251 252 254 257 261 267 272 274 278 283 286 286 287 288 289 292 291 296 299 301 299 300 302 300 301 297 298 300 299 305 309 310 310 306 304 299 300 304 306 302 305 302 302 304 305 305
248 250 251 255 262 266 268 270 273 276 278 280 284 285 286 290 293 293 296 299 298 299 299 297 294 295 296 299 300 301 305 310 316 315 307 297 297 315 317 308 303 305 303 304 304 301 304
252 253 256 258 263 265 268 271 274 277 280 279 282 286 289 294 289 290 292 294 295 296 294 292 292 290 295 296 298 302 311 320 325 324 311 306 299 312 313 302 298 302 294 304 306 305 301
252 253 255 259 262 264 268 272 274 274 277 279 285 284 286 275 278 283 287 289 288 289 289 290 287 293 297 297 299 306 314 321 319 315 312 303 304 302 301 301 301 304 294 302 305 307 303
253 255 257 259 261 263 265 266 263 269 272 277 276 270 271 265 270 278 278 281 280 281 279 284 287 289 297 308 313 315 314 315 311 307 305 299 298 301 300 301 306 304 295 303 302 302 299
254 257 257 257 256 263 263 263 261 259 262 262 262 264 263 263 263 267 266 268 270 271 278 288 299 309 308 309 308 308 310 309 305 302 300 295 297 301 302 300 304 302 306 305 299 298 299
Height
5880 5880 5879 5880 5879 5878 5877 5875 5874 5871 5869 5866 5863 5860 5857 5855 5852 5850 5847 5844 5841 5837 5834 5831 5828 5825 5822 5819 5815 5812 5810 5809 5807 5805 5803 5799 5796 5795 5792 5790 5788 5786 5784 5782 5780 5779 5776
5879 5879 5879 5880 5879 5878 5877 5875 5874 5871 5869 5865 5863 5860 5858 5855 5853 5850 5848 5845 5843 5840 5836 5832 5829 5826 5823 5819 5816 5813 5810 5808 5807 5805 5802 5800 5798 5795 5793 5790 5788 5785 5783 5781 5778 5777 5774
5879 5879 5879 5879 5879 5878 5877 5875 5874 5872 5869 5865 5863 5860 5858 5855 5853 5851 5848 5846 5844 5841 5837 5834 5831 5827 5824 5823 5819 5815 5812 5809 5807 5804 5800 5799 5798 5797 5792 5789 5786 5783 5781 5778 5775 5773 5771
5878 5878 5878 5878 5878 5877 5876 5875 5873 5872 5869 5866 5863 5860 5858 5855 5853 5851 5849 5846 5844 5841 5837 5834 5830 5828 5825 5821 5818 5815 5811 5809 5806 5803 5800 5798 5795 5795 5793 5789 5785 5782 5779 5776 5773 5770 5768
5876 5876 5877 5877 5877 5876 5876 5874 5873 5871 5869 5866 5863 5860 5857 5854 5852 5850 5848 5845 5843 5840 5838 5835 5832 5829 5827 5823 5819 5815 5812 5808 5805 5801 5798 5795 5793 5791 5790 5789 5785 5780 5776 5772 5770 5767 5764
5875 5875 5875 5876 5876 5875 5875 5874 5872 5870 5868 5865 5863 5860 5857 5854 5852 5849 5847 5844 5842 5839 5837 5834 5832 5831 5827 5824 5819 5815 5812 5809 5806 5802 5798 5795 5791 5788 5786 5785 5783 5778 5774 5770 5766 5763 5759
5873 5873 5873 5874 5874 5874 5874 5872 5871 5869 5867 5864 5862 5859 5856 5853 5850 5849 5846 5844 5842 5839 5835 5833 5831 5828 5826 5823 5819 5815 5811 5808 5805 5801 5796 5791 5790 5785 5782 5780 5777 5773 5770 5767 5762 5758 5754
5870 5871 5872 5872 5873 5873 5872 5871 5869 5867 5865 5863 5861 5858 5854 5852 5849 5846 5843 5841 5838 5838 5835 5832 5830 5827 5824 5821 5817 5813 5810 5807 5802 5799 5795 5791 5786 5784 5780 5775 5771 5768 5766 5763 5759 5754 5750
5867 5868 5870 5870 5870 5870 5870 5869 5867 5865 5863 5861 5858 5856 5853 5851 5848 5845 5843 5840 5837 5834 5833 5831 5828 5826 5823 5820 5815 5811 5808 5804 5800 5796 5792 5788 5783 5779 5776 5773 5768 5764 5760 5757 5753 5748 5745
5863 5865 5866 5867 5868 5868 5867 5866 5865 5863 5861 5859 5856 5853 5851 5848 5847 5844 5841 5839 5835 5833 5831 5830 5825 5823 5819 5816 5813 5809 5806 5802 5798 5794 5790 5785 5780 5776 5771 5768 5763 5758 5755 5751 5746 5743 5739
5859 5861 5862 5864 5865 5865 5864 5863 5862 5860 5857 5855 5853 5849 5847 5846 5844 5842 5839 5836 5833 5831 5829 5828 5824 5820 5816 5814 5810 5806 5802 5798 5794 5790 5787 5783 5777 5772 5767 5763 5758 5754 5748 5744 5740 5737 5734
5855 5857 5858 5859 5860 5860 5860 5859 5858 5856 5854 5852 5850 5847 5845 5844 5842 5839 5837 5834 5831 5829 5825 5823 5819 5816 5813 5808 5805 5801 5797 5794 5789 5785 5781 5777 5772 5767 5762 5757 5752 5748 5742 5737 5733 5729 5727
5850 5852 5854 5855 5855 5855 5855 5854 5853 5852 5850 5847 5846 5844 5842 5840 5838 5836 5833 5831 5830 5826 5824 5820 5816 5813 5809 5806 5802 5797 5793 5789 5785 5781 5776 5772 5768 5762 5757 5751 5746 5740 5736 5730 5726 5722 5719
5845 5847 5849 5850 5851 5850 5850 5849 5849 5846 5844 5842 5841 5840 5837 5836 5834 5832 5829 5829 5825 5823 5820 5816 5812 5809 5806 5802 5798 5793 5788 5783 5779 5775 5770 5766 5763 5757 5751 5745 5739 5734 5729 5724 5718 5715 5711
5839 5841 5842 5844 5845 5845 5845 5844 5843 5840 5839 5837 5835 5835 5834 5832 5829 5828 5826 5824 5820 5818 5815 5812 5809 5805 5801 5796 5791 5786 5781 5778 5774 5769 5764 5758 5755 5750 5745 5740 5735 5729 5725 5718 5712 5707 5702
5832 5834 5836 5837 5838 5839 5839 5838 5837 5836 5834 5832 5830 5829 5829 5827 5824 5822 5821 5818 5815 5813 5810 5806 5803 5799 5793 5789 5784 5779 5775 5772 5767 5762 5756 5751 5747 5744 5737 5732 5726 5720 5716 5709 5703 5697 5692
5825 5827 5829 5830 5831 5831 5832 5832 5831 5830 5829 5827 5825 5824 5823 5821 5819 5817 5815 5813 5810 5807 5804 5801 5796 5792 5787 5782 5778 5773 5768 5765 5759 5754 5749 5743 5740 5736 5730 5725 5717 5714 5708 5702 5696 5690 5684
5817 5819 5821 5822 5824 5824 5824 5824 5824 5824 5822 5822 5819 5818 5817 5814 5814 5810 5808 5806 5803 5799 5796 5793 5789 5785 5781 5776 5771 5766 5761 5756 5752 5747 5741 5736 5730 5727 5722 5715 5708 5704 5697 5691 5686 5681 5676
5808 5810 5812 5814 5816 5816 5815 5816 5815 5817 5815 5816 5813 5811 5809 5807 5805 5803 5801 5798 5795 5791 5787 5784 5781 5776 5772 5768 5763 5758 5754 5749 5745 5739 5733 5727 5721 5715 5709 5706 5698 5693 5687 5680 5674 5672 5668
5799 5801 5803 5805 5807 5807 5808 5808 5808 5807 5807 5807 5807 5805 5801 5799 5797 5795 5793 5790 5787 5783 5780 5776 5773 5767 5764 5759 5755 5750 5747 5742 5736 5731 5726 5717 5715 5707 5703 5696 5686 5682 5677 5672 5667 5663 5657
5789 5791 5793 5794 5796 5798 5799 5800 5800 5800 5799 5799 5799 5797 5794 5793 5790 5788 5786 5783 5779 5776 5773 5768 5764 5758 5755 5751 5746 5743 5740 5733 5729 5724 5718 5710 5705 5697 5693 5687 5679 5672 5668 5661 5656 5653 5647
5777 5780 5782 5785 5787 5788 5790 5791 5791 5791 5790 5789 5788 5789 5788 5785 5782 5780 5778 5775 5771 5767 5762 5758 5752 5748 5746 5743 5739 5734 5728 5722 5717 5712 5706 5700 5694 5687 5681 5674 5667 5664 5659 5652 5648 5645 5640
5766 5769 5771 5773 5776 5778 5780 5781 5782 5781 5780 5779 5778 5776 5776 5777 5775 5772 5771 5766 5760 5757 5753 5749 5743 5740 5739 5735 5730 5725 5719 5713 5707 5700 5693 5688 5681 5674 5671 5665 5660 5658 5652 5645 5641 5636 5632
5755 5757 5760 5763 5765 5767 5769 5771 5771 5771 5769 5769 5768 5767 5765 5764 5764 5762 5760 5755 5751 5747 5742 5739 5735 5733 5730 5725 5719 5716 5711 5705 5700 5691 5683 5676 5671 5664 5661 5657 5654 5651 5644 5638 5633 5628 5622
5743 5746 5749 5752 5754 5756 5758 5759 5760 5761 5760 5758 5757 5756 5754 5752 5750 5748 5744 5742 5740 5738 5734 5730 5727 5722 5716 5713 5708 5704 5699 5695 5690 5683 5676 5669 5662 5657 5651 5647 5642 5641 5634 5629 5622 5620 5614
5732 5735 5738 5741 5743 5744 5746 5747 5748 5748 5749 5748 5746 5744 5743 5741 5739 5736 5733 5731 5730 5727 5725 5721 5716 5711 5707 5702 5696 5692 5687 5681 5677 5675 5671 5663 5656 5650 5642 5635 5630 5629 5622 5616 5612 5609 5604
5718 5722 5725 5727 5730 5733 5734 5734 5734 5736 5735 5735 5735 5734 5731 5729 5727 5727 5725 5723 5721 5718 5715 5711 5706 5702 5698 5691 5686 5681 5676 5672 5667 5662 5659 5651 5643 5636 5629 5623 5621 5616 5610 5605 5602 5600 5593
5703 5707 5710 5715 5717 5720 5722 5724 5722 5722 5723 5724 5724 5723 5722 5719 5718 5717 5715 5715 5711 5707 5702 5699 5694 5692 5685 5680 5674 5669 5665 5661 5656 5650 5644 5639 5632 5627 5617 5610 5609 5605 5600 5595 5592 5584 5582
5688 5692 5696 5699 5702 5705 5708 5711 5712 5713 5713 5711 5710 5709 5707 5706 5707 5704 5704 5701 5699 5694 5690 5686 5682 5678 5672 5667 5663 5657 5652 5648 5643 5638 5634 5628 5624 5616 5610 5602 5597 5593 5589 5585 5580 5575 5571